Regional Weather Roundup
Issued by NWS

Home | Current Version | Previous Version | Graphics & Text | Print | Product List | Glossary On
Versions: 1 2 3 4 5 6 7 8 9 10 11 12 13 14 15 16 17 18 19 20 21 22 23 24 25 26 27 28 29 30 31 32 33 34 35 36 37 38 39 40 41 42 43 44 45 46 47 48 49 50
000
ASUS43 KMPX 050210
RWRMN
WEATHER ROUNDUP FOR MINNESOTA
NATIONAL WEATHER SERVICE TWIN CITIES/CHANHASSEN MN
900 PM CDT TUE AUG 04 2015


NOTE: "FAIR" INDICATES FEW OR NO CLOUDS BELOW 12,000 FEET WITH NO
SIGNIFICANT WEATHER AND/OR OBSTRUCTIONS TO VISIBILITY. N/A MEANS
CURRENT SKY AND/OR WEATHER CONDITIONS ARE NOT AVAILABLE.

MNZ060>063-068>070-050300-
   Twin Cities Metro

CITY           SKY/WX    TMP DP  RH WIND       PRES   REMARKS
TWIN CITIES    PTCLDY    77  50  38 W7        29.99R
ST PAUL        MOCLDY    75  54  47 CALM      29.99R
CRYSTAL        CLEAR     75  52  44 W3        29.98R
BLAINE         PTCLDY    70  57  64 CALM      29.99R
LAKEVILLE      CLEAR     68  57  68 SW3       30.00R
EDEN PRAIRIE   PTCLDY    71  53  52 W6        29.99R
SOUTH ST PAUL  CLOUDY    76  51  41 CALM      29.99R
LAKE ELMO      FAIR      68  57  68 CALM      30.00R
$$
MNZ001>005-007-008-013>017-022>024-027-028-050300-
   Northwest Minnesota

CITY           SKY/WX    TMP DP  RH WIND       PRES   REMARKS
BEMIDJI        CLEAR     63  53  69 CALM      30.03R
HALLOCK        CLEAR     64  55  72 N5        30.02R
ROSEAU         CLEAR     61  54  77 E5        30.03R
WARROAD        CLEAR     64  55  72 E6        30.04S
THIEF RVR FALL CLEAR     66  54  63 NE6       30.02S
CROOKSTON      CLEAR     70  55  60 NE3       30.01S
FOSSTON        CLEAR     64  50  59 CALM      30.03R
DETROIT LAKES  CLEAR     70  54  56 CALM      30.03R
MOORHEAD       CLEAR     70  55  60 E3        30.01R
PARK RAPIDS    CLEAR     70  53  54 E6        30.02R
MAHNOMEN         N/A    N/A N/A N/A NE5       30.02R
$$
MNZ006-009>011-018-025>026-050300-
   North Central Minnesota

CITY           SKY/WX    TMP DP  RH WIND       PRES   REMARKS
BAUDETTE       CLEAR     61  52  72 NE6       30.04R
FLAG ISLAND    CLEAR     64  50  59 E3        30.03S
INTL FALLS     CLEAR     56  51  84 NE3       30.04S
WASKISH        CLEAR     61  54  77 CALM      30.04R
BIG FORK       CLEAR     59  50  72 CALM      30.05R
LONGVILLE      CLEAR     59  55  88 CALM      30.03R
GRAND RAPIDS   CLEAR     63  50  63 NE5       30.03R
CRANE LAKE     CLOUDY    57  54  88 CALM      30.07R
ORR            PTCLDY    55  48  76 CALM      30.03R
COOK           CLEAR     55  50  82 CALM      30.06R
WALKER         FAIR      63  51  64 N5        30.03R
$$
MNZ012-019>021-037-050300-
   Northeast Minnesota

CITY           SKY/WX    TMP DP  RH WIND       PRES   REMARKS
DULUTH         PTCLDY    59  49  69 E7        30.03R
ELY            CLOUDY    59  48  67 CALM      30.05R
HIBBING        CLEAR     60  49  66 N6        30.04R
EVELETH        CLEAR     59  48  67 N3        30.06R
DULUTH HARBOR  PTCLDY    55  52  88 N10       30.02R
TWO HARBORS    CLEAR     57  54  88 N3        30.02R
SILVER BAY     CLEAR     55  50  82 CALM      30.03R
GRAND MARAIS     N/A     52  50  93 CALM      30.02R
G MARAIS ARPRT CLEAR     54  46  76 CALM      30.05S
$$
MNZ029>031-032-039>041-046>048-054>057-064-050300-
   West Central Minnesota

CITY           SKY/WX    TMP DP  RH WIND       PRES   REMARKS
FERGUS FALLS   CLEAR     70  55  60 CALM      30.00R
WHEATON        CLEAR     64  55  72 CALM      30.01R
MORRIS         CLEAR     72  57  60 CALM      30.00R
ALEXANDRIA     CLEAR     68  57  68 NW3       30.03R
ELBOW LAKE     FAIR      70  57  63 NE3       30.01R
WADENA         CLEAR     66  54  63 CALM      30.01R
GLENWOOD       CLEAR     70  55  60 CALM      30.03R
APPLETON       CLEAR     72  55  56 SE3       30.00R
BENSON         CLEAR     66  55  68 CALM      30.01R
ORTONVILLE     CLEAR     72  55  56 E3        30.00R
MADISON        CLEAR     70  59  68 SE5       30.01R
WILLMAR        FAIR      70  61  73 CALM      30.03R HAZE
$$
MNZ033>034-036-042>043-049>051-058-059-050300-
   Central Minnesota

CITY           SKY/WX    TMP DP  RH WIND       PRES   REMARKS
ST CLOUD       CLEAR     66  58  75 NE3       29.99R
SAUK CENTRE    FAIR      70  54  57 CALM      30.02R
PAYNESVILLE    CLEAR     64  57  78 CALM      30.02R
AITKIN         CLEAR     61  54  77 CALM      30.01R
PINE RIVER     CLEAR     64  54  68 CALM      30.05R
BRAINERD       CLEAR     65  53  65 NE6       30.01R
STAPLES        CLEAR     68  52  56 N3        30.01R
LONG PRAIRIE   FAIR      66  54  63 CALM      30.02R
LITCHFIELD     CLEAR     70  55  60 CALM      30.02R
BUFFALO        CLEAR     71  57  61 CALM      30.01R
MAPLE LAKE     CLEAR     68  59  73 CALM      30.00R
$$
MNZ037-044-045-052-053-050300-
   East Central Minnesota

CITY           SKY/WX    TMP DP  RH WIND       PRES   REMARKS
PRINCETON      CLEAR     70  57  64 CALM      30.00R
MORA           CLEAR     63  55  77 CALM      30.02R
CAMBRIDGE      CLEAR     70  55  60 CALM      29.98R
RUSH CITY      CLEAR     63  57  80 CALM      30.00R
MOOSE LAKE     MOCLDY    63  55  77 CALM      29.99R
HINCKLEY       FAIR      63  61  94 NE3       30.00R
CLOQUET        CLEAR     61  48  63 E6        30.03R
MCGREGOR       CLEAR     63  55  77 CALM      30.02R
$$
MNZ071>073-080-081-089-090-097-098-050300-
   Southwest Minnesota

CITY           SKY/WX    TMP DP  RH WIND       PRES   REMARKS
MONTEVIDEO     CLEAR     68  55  64 CALM      30.03R
GRANITE FALLS  CLEAR     67  60  78 CALM      30.03R
CANBY          CLEAR     69  59  69 CALM      30.02S
MARSHALL       CLEAR     72  55  56 SE6       30.03S
REDWOOD FALLS  CLEAR     72  57  59 CALM      30.01R
OLIVIA         CLEAR     68  57  68 CALM      30.02R
PIPESTONE      MOCLDY    68  61  77 CALM      30.02S
WINDOM         PTCLDY    66  57  72 CALM      30.03S
WORTHINGTON    PTCLDY    68  57  68 SE3       30.03S
JACKSON        PTCLDY    66  59  77 SE5       30.04S
TRACY          PTCLDY    70  59  68 CALM      30.02S
SLAYTON        PTCLDY    67  60  78 CALM      30.04S
$$
MNZ065>067-074>077-082>085-091>093-050300-
   South Central Minnesota

CITY           SKY/WX    TMP DP  RH WIND       PRES   REMARKS
MANKATO        PTCLDY    72  54  53 S6        30.02R
NEW ULM        CLEAR     66  55  68 CALM      30.02R
ST JAMES       PTCLDY    66  61  82 E5        30.03S
FAIRMONT       PTCLDY    68  55  64 E5        30.03S
GLENCOE        CLEAR     69  60  73 CALM      30.00S
FARIBAULT      PTCLDY    68  57  68 CALM      30.02R
OWATONNA       PTCLDY    64  55  72 SW6       30.03R
WASECA         PTCLDY    63  59  88 CALM      30.04R
ALBERT LEA     PTCLDY    64  57  77 CALM      30.04R
$$
MNZ078>079-086>088-094>096-050300-
   Southeast Minnesota

CITY           SKY/WX    TMP DP  RH WIND       PRES   REMARKS
ROCHESTER      PTCLDY    65  56  72 SW5       30.04R
RED WING       PTCLDY    70  61  73 CALM      29.98R
STANTON        CLEAR     67  59  76 CALM      30.00R
DODGE CENTER   PTCLDY    63  57  82 SW3       30.03R HAZE
WINONA         CLEAR     70  61  73 CALM      30.00R
AUSTIN         MOCLDY    68  55  64 CALM      30.04R
PRESTON        PTCLDY    66  55  66 CALM      30.04S
$$
ABBREVIATIONS USED IN REMARKS
   TC - TEMPERATURES IN CELSIUS
  WCI - WIND CHILL INDEX
   HX - HEAT INDEX
  VSB - VISIBILITY
$$


USA.gov is the U.S. government's official web portal to all federal, state and local government web resources and services.